SCP
1 1 1 1 1 1 1 2 1 1 1 1 1 1 1 1 1 1 1 1 1 1 1 1 2 1 1 1 1 1 1 1 1 1 1 1 1 1 1 1 1 1 1
1 1 1 1 1 1 1 1 1 1 1 1 1 1 1 1 1 1 1 1 1 1 1 1 1 1 1 1 1 1 1 1 1 1 1 1 0 0 1 1 1 1 1
1 1 1 1 1 1 1 1 2 2 1 1 1 1 1 1 1 1 1 1 2 2 1 1 1 1 1 1 1 1 1 1 1 1 1 1 0 0 0 0 1 1 1
2 1 1 1 1 1 1 1 1 2 1 1 1 1 1 1 1 1 1 1 2 1 1 1 1 1 1 1 1 1 1 1 1 1 1 0 0 1 1 1 1 1 1
2 2 1 1 1 1 1 1 1 1 1 1 1 1 1 1 1 1 1 1 1 1 1 2 2 1 1 1 1 1 1 1 1 1 1 0 1 1 1 1 1 1 1
2 2 2 2 1 1 1 1 1 1 1 1 1 1 1 2 2 1 1 1 1 1 1 2 2 2 1 1 1 1 1 1 1 1 1 0 1 1 1 1 1 1 1
2 2 2 2 2 1 1 1 1 1 1 1 1 1 1 2 2 1 1 1 1 1 1 1 1 1 1 1 1 0 1 1 1 1 1 1 1 1 0 0 0 1 1
2 2 2 2 2 2 2 1 1 1 1 1 1 1 2 2 2 2 1 1 1 1 1 1 1 1 1 1 0 0 1 1 1 1 1 1 1 1 0 0 0 1 1
1 1 2 2 2 2 2 2 2 1 1 1 1 1 2 2 2 2 1 1 1 1 1 1 1 1 1 1 1 1 1 1 1 1 1 1 1 1 1 0 1 1 1
2 2 2 2 2 2 2 2 2 2 1 1 1 2 2 2 2 2 1 1 1 1 1 1 1 1 1 1 1 1 0 0 0 1 1 1 1 1 1 0 1 1 1
2 2 2 2 2 1 2 2 2 2 2 2 2 2 2 1 1 1 1 1 1 1 1 1 1 1 1 1 1 1 0 0 1 1 1 1 1 1 1 0 0 1 1
2 2 2 2 2 1 1 2 2 2 2 2 2 2 2 1 1 1 1 1 1 1 1 1 1 1 1 1 1 1 1 0 1 1 1 1 1 1 1 0 0 1 1
3 3 3 2 2 2 1 1 2 2 2 2 2 2 2 2 1 1 2 2 1 2 2 1 1 1 1 1 1 1 1 1 1 1 1 1 1 1 0 0 0 1 1
3 3 3 3 2 2 2 1 1 1 2 2 2 2 2 2 2 2 2 2 2 2 2 1 1 1 1 1 1 1 1 1 1 1 1 1 1 1 0 0 0 1 1
3 3 3 3 2 2 2 2 1 1 1 2 2 2 2 2 2 2 2 2 2 2 2 2 2 2 2 1 1 1 1 1 1 1 2 2 1 1 1 1 1 1 1
3 3 3 3 3 2 2 2 2 2 2 1 1 1 2 2 2 2 2 2 2 2 2 2 2 2 1 1 1 1 1 1 1 1 1 1 1 1 1 1 2 2 2
3 3 3 3 3 3 3 2 2 2 2 2 1 1 2 2 2 2 2 2 2 2 1 2 1 1 1 1 1 1 1 1 1 1 1 1 1 1 1 1 2 2 2
3 3 3 3 3 3 3 3 3 3 2 2 2 2 2 2 2 2 3 3 2 2 1 2 2 2 2 2 1 1 1 2 1 1 1 1 1 1 1 1 1 1 1
3 3 3 3 3 4 4 4 4 3 3 2 2 2 2 2 2 2 2 3 2 2 2 2 2 2 2 2 2 2 2 2 2 2 2 1 1 1 1 1 1 1 1
3 4 4 4 4 5 5 4 4 4 3 3 2 2 2 2 2 2 2 2 2 2 2 2 2 2 2 2 2 2 3 3 3 3 2 2 1 1 1 1 1 1 1
3 4 5 5 5 6 6 5 4 4 4 3 3 2 2 3 3 3 2 2 2 2 2 2 2 2 2 2 2 2 3 3 3 3 3 2 2 2 1 1 1 1 1
3 4 5 5 6 7 6 5 4 4 4 3 3 3 3 3 4 3 2 2 2 2 2 2 1 1 1 2 2 2 3 3 3 2 2 3 2 2 2 1 1 1 1
4 4 5 5 6 6 5 4 4 4 4 3 3 3 4 4 4 4 3 2 2 2 2 2 2 1 2 2 2 2 2 2 2 3 3 3 3 2 2 2 1 1 1
5 4 4 5 5 5 4 3 3 4 4 3 3 3 4 4 4 4 3 2 2 2 2 2 2 2 2 2 2 2 2 2 2 3 3 3 3 3 2 2 1 1 1
5 5 4 4 4 4 4 4 4 3 4 4 4 4 4 4 4 4 3 3 2 2 2 2 2 2 2 2 3 2 2 2 2 2 3 3 3 2 3 3 2 2 1
4 4 5 4 4 4 4 4 4 3 4 4 4 4 4 4 4 4 3 3 3 2 2 2 2 2 2 3 3 3 3 2 2 2 2 3 3 2 3 3 3 2 2
Wind_Speed
8 10 12 9 8 8 8 7 7 7 6 6 6 6 6 6 6 6 6 6 7 7 8 8 9 9 9 10 10 10 10 11 10 11 11 11 11 10 9 9 9 9 11
10 11 12 9 8 8 8 7 7 7 7 6 6 6 6 6 6 5 5 6 6 7 7 8 8 9 9 10 10 10 10 10 9 9 11 12 11 10 9 7 6 7 10
10 11 12 10 8 8 7 7 7 7 6 6 6 6 6 6 5 5 5 5 5 6 7 7 7 8 8 9 9 10 9 9 8 8 8 7 10 10 8 8 8 9 9
10 10 10 11 8 8 7 7 6 6 6 6 6 5 5 5 5 5 4 5 5 6 6 7 7 7 8 8 9 9 9 8 7 6 5 5 7 10 8 8 8 9 9
10 9 11 10 8 7 7 6 6 6 6 6 6 5 5 5 4 4 4 5 6 6 6 6 7 6 7 7 8 8 8 8 7 5 5 5 6 8 8 8 8 9 9
10 9 12 9 8 7 6 6 5 6 6 6 5 5 5 5 5 5 6 6 6 5 6 6 6 6 6 6 7 7 7 6 7 5 5 5 6 8 7 7 8 9 9
9 9 11 9 7 7 6 6 5 5 5 5 5 5 5 5 4 5 5 5 5 5 5 5 5 6 5 5 6 6 6 5 3 4 5 5 6 7 6 7 8 8 8
9 8 10 10 8 7 6 6 5 5 4 5 5 4 4 4 4 4 4 4 4 4 4 5 5 5 5 5 5 5 4 4 4 4 5 6 7 7 6 6 7 7 8
8 8 8 9 9 8 7 6 5 5 4 4 4 4 3 3 3 3 3 4 3 3 4 4 5 4 5 5 5 4 3 3 2 3 4 5 7 7 6 6 6 7 7
7 6 6 7 7 7 8 8 6 5 4 4 4 3 3 3 4 4 4 4 3 3 4 4 5 5 5 5 4 4 4 6 3 3 3 6 8 6 6 6 6 6 7
7 6 6 6 6 5 6 7 8 7 6 5 5 5 4 3 3 4 4 4 3 3 4 4 5 5 5 6 5 4 4 2 2 2 3 8 7 6 6 5 5 5 6
8 7 6 5 5 5 4 5 4 4 5 4 2 3 2 1 0 1 5 4 4 4 4 5 5 5 6 4 7 6 2 1 2 3 5 8 6 6 5 5 5 5 6
8 7 6 5 5 4 3 3 2 2 2 3 2 2 1 1 1 1 1 4 4 5 4 5 5 2 2 1 1 2 1 1 1 2 6 9 6 5 5 5 5 5 5
8 7 7 6 5 4 3 2 2 2 2 2 2 2 1 1 1 1 1 0 2 2 2 2 1 1 1 2 2 2 1 1 1 2 5 8 6 5 5 5 5 4 4
8 7 7 6 5 4 3 2 2 2 2 2 1 2 2 2 2 1 1 1 1 1 2 2 1 2 2 2 2 2 1 1 1 1 4 8 5 4 4 4 4 3 3
8 8 7 7 6 5 4 3 2 3 2 2 2 2 2 2 1 1 1 1 1 1 1 1 2 2 2 1 1 2 1 1 1 1 2 5 7 5 4 3 3 3 3
8 8 7 7 7 6 5 4 3 3 2 2 1 2 2 2 2 2 1 2 1 1 2 1 2 2 2 3 2 2 2 2 2 2 2 2 4 7 6 4 4 3 4
8 8 7 6 7 7 5 4 3 2 2 2 2 2 3 2 2 2 1 1 1 2 2 2 2 1 1 2 2 2 2 2 2 2 2 2 2 2 6 6 5 4 4
8 8 8 6 6 6 5 4 4 3 2 2 2 2 2 2 2 2 1 1 2 2 2 2 2 1 1 1 2 2 2 2 2 2 2 2 2 2 2 6 7 5 4
8 8 7 7 6 5 5 4 3 3 2 2 2 1 2 2 2 2 2 1 2 2 1 1 1 1 1 1 2 1 1 1 1 1 2 2 2 2 2 2 4 5 6
8 8 8 7 6 5 4 4 3 3 2 2 2 2 2 2 2 2 2 1 2 1 2 2 2 2 2 2 2 2 2 3 2 2 1 1 2 2 2 2 2 2 4
8 8 8 7 6 6 4 3 2 2 2 2 1 1 2 2 3 2 2 2 1 1 2 2 2 2 2 2 2 2 3 3 3 2 2 3 2 2 2 3 2 2 2
8 8 6 7 6 6 5 4 3 3 3 2 2 2 2 2 2 2 2 2 2 2 2 2 3 3 3 3 3 3 2 2 2 3 3 2 2 2 2 2 3 2 2
7 7 7 7 7 6 6 5 5 4 3 2 2 2 2 2 2 2 2 2 2 2 2 3 3 3 4 3 3 3 3 2 2 2 4 3 3 3 3 2 2 3 3
8 7 7 7 7 6 6 5 5 4 3 3 3 3 2 2 2 2 2 3 3 2 2 2 2 3 3 3 3 3 3 3 4 3 2 3 3 3 3 3 2 2 2
8 8 8 8 7 6 6 6 5 5 4 3 3 2 2 2 2 2 3 3 3 2 2 2 3 4 3 3 3 3 3 3 4 3 3 3 2 2 3 2 2 2 2
Wind_Direction
136 129 129 138 137 135 134 133 133 128 120 113 107 103 102 101 99 98 94 94 95 97 103 110 114 116 120 122 121 118 116 117 118 122 124 124 123 123 126 139 148 131 118
131 130 132 138 137 135 135 135 133 128 120 113 106 102 102 102 99 99 98 96 97 98 104 111 111 114 116 121 122 120 119 117 121 127 134 132 126 121 121 125 119 112 126
132 132 141 139 138 136 134 133 132 130 124 118 110 104 103 101 97 98 99 98 99 103 106 110 114 116 117 122 125 124 122 121 125 137 154 135 123 119 119 124 125 123 129
135 138 139 135 139 137 134 132 133 133 129 123 116 108 106 101 95 96 101 108 105 108 111 112 111 115 119 124 126 129 128 130 139 165 146 116 119 119 125 129 131 132 134
136 138 131 141 142 140 138 134 135 135 131 126 120 107 100 98 92 83 84 111 110 111 112 111 113 116 123 127 129 131 134 143 161 172 115 111 108 117 130 138 140 136 136
145 146 134 147 144 143 141 136 137 135 131 128 121 107 99 97 89 81 82 103 108 110 112 112 115 118 125 132 135 138 142 160 184 138 121 117 111 115 130 141 144 142 136
147 144 137 146 146 147 145 141 136 134 132 129 122 109 98 93 93 90 89 98 105 110 114 117 120 123 127 133 138 143 152 177 182 125 125 119 108 122 132 138 142 141 147
149 146 136 145 150 153 151 144 137 131 129 125 121 114 104 98 96 100 101 107 111 115 118 120 125 130 130 134 137 139 155 209 164 122 126 119 117 135 143 146 147 145 148
151 150 150 155 158 162 159 150 143 134 128 124 121 118 116 120 119 116 120 116 113 119 122 121 125 129 133 134 137 140 157 215 203 140 139 119 127 144 154 154 154 154 152
156 158 157 158 159 169 163 157 155 149 144 143 144 140 142 156 154 153 159 128 127 125 124 124 124 134 139 137 137 150 183 216 190 152 136 120 132 151 161 157 157 162 160
163 167 168 166 163 174 164 151 169 169 166 177 174 168 196 180 149 163 106 110 128 131 130 130 128 132 145 145 144 164 208 221 156 130 112 115 139 157 159 155 161 165 167
171 174 175 174 172 174 166 157 182 181 165 191 163 175 190 122 102 100 115 140 149 150 153 147 150 172 200 167 161 186 204 185 163 133 117 125 144 156 161 165 171 174 173
174 175 177 177 177 182 173 173 183 186 165 186 175 191 191 202 176 205 157 161 168 176 176 158 185 197 188 148 165 161 153 148 124 119 116 126 140 157 169 175 180 181 180
177 180 180 178 178 188 186 183 189 189 178 189 166 212 202 213 218 217 229 177 182 178 170 195 180 176 184 178 177 163 162 166 121 112 119 125 136 152 163 170 178 183 186
181 183 184 181 181 186 195 213 193 201 190 177 184 202 234 233 229 220 214 231 231 170 177 181 185 174 203 194 187 167 157 137 137 142 129 130 138 150 166 177 185 180 185
186 186 183 189 187 191 195 201 206 209 189 205 188 198 223 245 244 244 216 204 211 198 187 181 166 190 203 185 190 167 175 160 135 167 165 145 151 160 169 184 192 194 197
188 187 188 192 190 195 202 204 202 206 193 209 197 189 216 239 229 230 227 217 209 198 176 196 186 187 187 182 177 178 178 177 159 172 204 192 167 165 170 180 192 200 208
187 186 193 195 188 193 200 207 211 210 199 202 204 206 210 225 224 232 225 223 205 217 208 193 206 187 166 183 171 182 170 169 176 191 204 195 194 176 165 168 183 194 206
188 187 188 192 187 189 189 192 204 196 208 206 196 210 200 205 213 227 232 223 225 218 217 220 175 191 177 185 188 185 171 163 186 192 201 198 179 194 185 161 176 184 187
182 185 185 185 181 183 185 187 192 187 188 195 189 186 202 200 211 230 218 214 238 222 213 218 181 187 196 213 219 172 179 174 206 191 214 180 178 187 193 186 177 171 175
180 181 182 183 176 182 187 191 190 186 189 194 185 175 194 202 209 223 236 196 236 219 215 202 207 189 202 214 204 190 181 188 189 202 214 217 194 192 187 191 206 200 171
181 181 180 183 178 185 178 183 178 174 196 191 190 168 199 201 213 214 216 214 205 206 194 200 211 226 212 218 231 224 212 187 190 197 204 211 221 204 198 190 193 208 227
180 182 180 177 175 180 173 169 162 170 190 181 181 182 190 200 205 212 208 219 211 215 192 207 219 223 225 221 243 261 254 228 180 174 201 207 220 223 228 201 196 196 200
177 171 171 172 173 173 175 179 178 186 190 189 195 186 185 189 196 195 206 214 219 221 197 214 205 225 234 228 218 248 271 306 262 186 182 184 207 219 240 239 203 201 209
171 164 164 167 169 171 175 176 188 198 192 184 189 178 192 176 181 183 197 211 210 215 209 223 212 230 230 242 242 232 227 223 247 252 216 192 195 201 215 229 224 219 209
166 162 162 164 166 170 174 177 189 193 190 187 187 180 193 178 173 173 198 202 204 206 206 219 224 223 242 246 257 249 235 236 234 242 238 220 211 189 196 209 218 213 204